Andover, NJ

3:42 PM EDT on July 21, 2017 (GMT -0400)
Andover

Weather History for K12N - December, 2012

Change the Weather History Date:

Saturday, December 8, 2012

  Actual Average (KFWN) Record (KFWN)
Temperature  
Mean Temperature 42 °F -  
Max Temperature 46 °F 42 °F 60 °F (1951)
Min Temperature 37 °F 23 °F 6 °F (1970)
Degree Days  
Heating Degree Days 24    
Moisture  
Dew Point 42 °F    
Average Humidity 96    
Maximum Humidity 100    
Minimum Humidity 92    
Precipitation  
Precipitation 0.17 in - - ()
Sea Level Pressure  
Sea Level Pressure 29.96 in    
Wind  
Wind Speed 1 mph (SSW)    
Max Wind Speed 5 mph    
Max Gust Speed -    
Averages and records for this station are not official NWS values.
T = Trace of Precipitation, MM = Missing Value Source: NWS Daily Summary

Daily Weather History Graph

Daily Weather History Graph

Search for Another Location

Airport or City:

Trip Planner

Search our weather history database for the weather conditions in past years. The results will help you decide how hot, cold, wet, or windy it might be!

Date:

Astronomy

Dec. 08, 2012 Rise Set
Actual Time 7:11 AM EST 4:30 PM EST
Civil Twilight 6:40 AM EST 5:01 PM EST
Nautical Twilight 6:06 AM EST 5:35 PM EST
Astronomical Twilight 5:32 AM EST 6:09 PM EST
Moon 1:31 AM EST (12/8) 1:00 PM EST (12/8)
Length of Visible Light 10h 20m
Length of Day
9h 18m
Waning Crescent, 28% of the Moon is Illuminated
Dec 8
Waning Crescent
Dec 13
New
Dec 20
First Quarter
Dec 28
Full
Jan 4
Last Quarter

Hourly Weather History & Observations

Time (EST) Temp. Windchill Dew Point Humidity Pressure Visibility Wind Dir Wind Speed Gust Speed Precip Events Conditions
12:54 AM 39.0 °F - 37.0 °F 93% 30.01 in - Calm Calm - 0.05 in   Unknown
1:54 AM 39.0 °F - 37.9 °F 96% 30.01 in - Calm Calm - 0.04 in   Unknown
2:54 AM 39.0 °F - 37.9 °F 96% 29.99 in - Calm Calm - 0.07 in   Unknown
3:54 AM 39.0 °F - 37.9 °F 96% 29.96 in - Calm Calm - N/A   Unknown
4:54 AM 39.0 °F - 37.9 °F 96% 29.95 in - Calm Calm - N/A   Unknown
5:54 AM 39.0 °F - 37.0 °F 93% 29.94 in - Calm Calm - 0.01 in   Unknown
6:54 AM 39.0 °F - 37.9 °F 96% 29.94 in - Calm Calm - N/A   Unknown
7:54 AM 37.9 °F - 37.9 °F 100% 29.95 in - Calm Calm - N/A   Unknown
8:54 AM 39.0 °F - 37.9 °F 96% 29.95 in - Calm Calm - N/A   Unknown
9:54 AM 39.9 °F - 39.0 °F 97% 29.96 in - Calm Calm - N/A   Unknown
10:54 AM 42.1 °F - 39.9 °F 92% 29.93 in - Calm Calm - N/A   Unknown
11:54 AM 44.1 °F - 43.0 °F 96% 29.91 in - Calm Calm - N/A   Unknown
12:54 PM 45.0 °F 42.6 °F 44.1 °F 97% 29.89 in - Variable 4.6 mph - N/A   Unknown
1:54 PM 46.0 °F 44.8 °F 45.0 °F 96% 29.89 in - SSW 3.5 mph - N/A   Unknown
2:54 PM 46.9 °F - 45.0 °F 93% 29.90 in - SSW 4.6 mph - N/A   Unknown
3:54 PM 46.0 °F 43.9 °F 44.1 °F 93% 29.92 in - SSW 4.6 mph - N/A   Unknown
4:54 PM 46.0 °F 44.8 °F 44.1 °F 93% 29.93 in - Variable 3.5 mph - N/A   Unknown
5:54 PM 46.0 °F 43.9 °F 44.1 °F 93% 29.94 in - Variable 4.6 mph - N/A   Unknown
6:54 PM 45.0 °F - 45.0 °F 100% 29.96 in - Calm Calm - N/A   Unknown
7:54 PM 45.0 °F - 45.0 °F 100% 29.98 in - Calm Calm - N/A   Unknown
8:54 PM 45.0 °F - 45.0 °F 100% 29.99 in - Calm Calm - N/A   Unknown
9:54 PM 46.0 °F 44.8 °F 45.0 °F 96% 29.99 in - SW 3.5 mph - N/A   Unknown
10:54 PM 46.0 °F 43.9 °F 45.0 °F 96% 30.02 in - South 4.6 mph - N/A   Unknown
11:54 PM 46.0 °F - 45.0 °F 96% 30.02 in - Calm Calm - N/A   Unknown